Weather History for Galax, VA

Change the Weather History Date:

Tuesday, January 22, 2013

  Actual Average (KBLF) Record (KBLF)
Temperature  
Mean Temperature 22 °F 34 °F  
Max Temperature 26 °F 42 °F 65 °F (1967)
Min Temperature 17 °F 26 °F -5 °F (1970)
Degree Days  
Heating Degree Days 44 31  
Month to date heating degree days 682  
Since 1 July heating degree days 2447  
Cooling Degree Days 0 0  
Month to date cooling degree days 0  
Year to date cooling degree days 0  
Moisture  
Dew Point -5 °F    
Average Humidity 33    
Maximum Humidity 46    
Minimum Humidity 20    
Precipitation  
Precipitation 0.00 in 0.09 in 0.90 in (1987)
Month to date precipitation 2.07  
Year to date precipitation 2.07  
Snow  
Snow 0.00 in - - ()
Month to date snowfall  
Since 1 July snowfall  
Snow Depth -    
Sea Level Pressure  
Sea Level Pressure 30.06 in    
Wind  
Wind Speed 15 mph (WNW)    
Max Wind Speed 22 mph    
Max Gust Speed 32 mph    
Visibility 10 miles    
Events      
T = Trace of Precipitation, MM = Missing Value Source: NWS Daily Summary

Daily Weather History Graph

Daily Weather History Graph

Search for Another Location

Airport:

Trip Planner

Search our weather history database for the weather conditions in past years. The results will help you decide how hot, cold, wet, or windy it might be!

Date:

Astronomy

Jan. 22, 2013 Rise Set
Actual Time 7:31 AM EST 5:38 PM EST
Civil Twilight 7:04 AM EST 6:06 PM EST
Nautical Twilight 6:32 AM EST 6:37 PM EST
Astronomical Twilight 6:01 AM EST 7:08 PM EST
Moon 2:01 PM EST (1/22) 3:51 AM EST (1/22)
Length of Visible Light 11h 02m
Length of Day
10h 06m
Waxing Gibbous, 82% of the Moon is Illuminated
Jan 22
Waxing Gibbous
Jan 26
Full
Feb 3
Last Quarter
Feb 10
New
Feb 17
First Quarter

Hourly Weather History & Observations

Time (EST) Temp. Windchill Dew Point Humidity Pressure Visibility Wind Dir Wind Speed Gust Speed Precip Events Conditions
12:15 AM 26.6 °F 13.8 °F 6.8 °F 43% 29.94 in 10.0 mi WNW 17.3 mph 26.5 mph N/A   Clear
12:35 AM 26.6 °F 14.3 °F 6.8 °F 43% 29.94 in 10.0 mi WNW 16.1 mph 29.9 mph N/A   Clear
12:55 AM 26.6 °F 13.4 °F 6.8 °F 43% 29.94 in 10.0 mi WNW 18.4 mph 26.5 mph N/A   Clear
1:15 AM 24.8 °F 12.9 °F 6.8 °F 46% 29.94 in 10.0 mi WNW 13.8 mph 26.5 mph N/A   Clear
1:35 AM 24.8 °F 11.5 °F 6.8 °F 46% 29.95 in 10.0 mi WNW 17.3 mph 28.8 mph N/A   Clear
1:55 AM 24.8 °F 12.9 °F 5.0 °F 43% 29.95 in 10.0 mi WNW 13.8 mph 28.8 mph N/A   Clear
2:15 AM 23.0 °F 8.3 °F 5.0 °F 46% 29.95 in 10.0 mi WNW 19.6 mph 27.6 mph N/A   Clear
2:55 AM 23.0 °F 8.7 °F -0.4 °F 36% 29.96 in 10.0 mi West 18.4 mph 29.9 mph N/A   Clear
3:15 AM 21.2 °F 8.3 °F -2.2 °F 36% 29.97 in 10.0 mi West 13.8 mph 27.6 mph N/A   Clear
3:35 AM 21.2 °F 6.4 °F -5.8 °F 30% 29.98 in 10.0 mi WNW 18.4 mph 31.1 mph N/A   Clear
3:55 AM 21.2 °F 10.1 °F -2.2 °F 36% 29.97 in 10.0 mi West 10.4 mph 17.3 mph N/A   Clear
4:15 AM 21.2 °F 11.7 °F -2.2 °F 36% 29.97 in 10.0 mi WNW 8.1 mph 19.6 mph N/A   Clear
4:35 AM 19.4 °F 3.2 °F -2.2 °F 39% 29.98 in 10.0 mi WNW 20.7 mph 32.2 mph N/A   Clear
4:55 AM 19.4 °F 5.5 °F -2.2 °F 39% 29.98 in 10.0 mi WNW 15.0 mph 25.3 mph N/A   Clear
5:15 AM 19.4 °F 4.5 °F -0.4 °F 42% 29.98 in 10.0 mi West 17.3 mph 21.9 mph N/A   Clear
5:35 AM 19.4 °F 5.5 °F -0.4 °F 42% 29.99 in 10.0 mi WNW 15.0 mph 21.9 mph N/A   Clear
5:55 AM 17.6 °F 4.3 °F -2.2 °F 42% 30.00 in 10.0 mi WNW 12.7 mph 21.9 mph N/A   Clear
6:15 AM 17.6 °F 3.2 °F -2.2 °F 42% 30.00 in 10.0 mi WNW 15.0 mph 21.9 mph N/A   Clear
6:35 AM 17.6 °F 2.2 °F -5.8 °F 35% 30.01 in 10.0 mi WNW 17.3 mph 24.2 mph N/A   Clear
6:55 AM 17.6 °F 1.3 °F -5.8 °F 35% 30.03 in 10.0 mi WNW 19.6 mph 27.6 mph N/A   Clear
7:15 AM 17.6 °F 2.7 °F -5.8 °F 35% 30.04 in 10.0 mi WNW 16.1 mph 26.5 mph N/A   Clear
7:35 AM 17.6 °F 3.7 °F -5.8 °F 35% 30.05 in 10.0 mi WNW 13.8 mph 19.6 mph N/A   Clear
7:55 AM 17.6 °F 4.3 °F -4.0 °F 38% 30.05 in 10.0 mi WNW 12.7 mph - N/A   Clear
8:15 AM 17.6 °F 2.2 °F -5.8 °F 35% 30.06 in 10.0 mi WNW 17.3 mph 24.2 mph N/A   Clear
8:35 AM 17.6 °F 2.2 °F -5.8 °F 35% 30.07 in 10.0 mi WNW 17.3 mph 24.2 mph N/A   Clear
8:55 AM 17.6 °F 0.9 °F -5.8 °F 35% 30.08 in 10.0 mi WNW 20.7 mph 26.5 mph N/A   Clear
9:15 AM 17.6 °F 2.7 °F -5.8 °F 35% 30.08 in 10.0 mi WNW 16.1 mph 21.9 mph N/A   Clear
9:35 AM 17.6 °F 1.7 °F -7.6 °F 32% 30.09 in 10.0 mi WNW 18.4 mph 27.6 mph N/A   Clear
9:55 AM 17.6 °F 3.2 °F -5.8 °F 35% 30.10 in 10.0 mi West 15.0 mph 27.6 mph N/A   Clear
10:35 AM 19.4 °F 6.0 °F -7.6 °F 30% 30.11 in 10.0 mi West 13.8 mph 21.9 mph N/A   Clear
10:55 AM 19.4 °F 6.6 °F -7.6 °F 30% 30.12 in 10.0 mi West 12.7 mph 21.9 mph N/A   Clear
11:15 AM 19.4 °F 5.0 °F -5.8 °F 33% 30.12 in 10.0 mi WNW 16.1 mph - N/A   Clear
11:35 AM 19.4 °F 7.9 °F -7.6 °F 30% 30.12 in 10.0 mi WNW 10.4 mph 21.9 mph N/A   Clear
11:55 AM 21.2 °F 8.3 °F -5.8 °F 30% 30.11 in 10.0 mi WNW 13.8 mph 18.4 mph N/A   Clear
12:15 PM 21.2 °F 8.3 °F -5.8 °F 30% 30.10 in 10.0 mi WNW 13.8 mph 27.6 mph N/A   Clear
12:35 PM 21.2 °F 8.3 °F -7.6 °F 28% 30.10 in 10.0 mi WNW 13.8 mph 25.3 mph N/A   Clear
12:55 PM 21.2 °F 5.2 °F -9.4 °F 26% 30.09 in 10.0 mi West 21.9 mph 28.8 mph N/A   Clear
1:15 PM 23.0 °F 7.6 °F -9.4 °F 24% 30.08 in 10.0 mi NW 21.9 mph 31.1 mph N/A   Clear
1:35 PM 23.0 °F 8.0 °F -9.4 °F 24% 30.08 in 10.0 mi NW 20.7 mph 28.8 mph N/A   Clear
1:55 PM 24.8 °F 12.9 °F -9.4 °F 22% 30.08 in 10.0 mi WNW 13.8 mph 26.5 mph N/A   Clear
2:15 PM 24.8 °F 13.4 °F -9.4 °F 22% 30.08 in 10.0 mi West 12.7 mph 20.7 mph N/A   Clear
2:35 PM 24.8 °F 10.7 °F -11.2 °F 20% 30.09 in 10.0 mi WNW 19.6 mph 25.3 mph N/A   Clear
2:55 PM 24.8 °F 11.5 °F -9.4 °F 22% 30.08 in 10.0 mi NW 17.3 mph 25.3 mph N/A   Clear
3:15 PM 24.8 °F 12.9 °F -7.6 °F 24% 30.09 in 10.0 mi NW 13.8 mph 21.9 mph N/A   Clear
3:35 PM 24.8 °F 14.0 °F -7.6 °F 24% 30.09 in 10.0 mi WNW 11.5 mph 19.6 mph N/A   Clear
3:55 PM 24.8 °F 12.4 °F -7.6 °F 24% 30.09 in 10.0 mi West 15.0 mph 25.3 mph N/A   Clear
4:15 PM 24.8 °F 12.4 °F -9.4 °F 22% 30.09 in 10.0 mi WNW 15.0 mph 25.3 mph N/A   Clear
4:35 PM 24.8 °F 12.9 °F -11.2 °F 20% 30.09 in 10.0 mi WNW 13.8 mph 23.0 mph N/A   Clear
4:55 PM 24.8 °F 12.9 °F -11.2 °F 20% 30.09 in 10.0 mi West 13.8 mph 21.9 mph N/A   Clear
5:15 PM 24.8 °F 14.0 °F -9.4 °F 22% 30.10 in 10.0 mi WNW 11.5 mph 18.4 mph N/A   Clear
5:35 PM 24.8 °F 14.0 °F -7.6 °F 24% 30.11 in 10.0 mi WNW 11.5 mph - N/A   Clear
5:55 PM 23.0 °F 11.7 °F -7.6 °F 26% 30.11 in 10.0 mi WNW 11.5 mph - N/A   Clear
6:15 PM 23.0 °F 13.9 °F -7.6 °F 26% 30.12 in 10.0 mi WNW 8.1 mph - N/A   Clear
6:35 PM 21.2 °F 11.7 °F -7.6 °F 28% 30.11 in 10.0 mi WNW 8.1 mph - N/A   Clear
6:55 PM 21.2 °F 12.6 °F -7.6 °F 28% 30.12 in 10.0 mi WNW 6.9 mph - N/A   Clear
7:15 PM 21.2 °F 12.6 °F -7.6 °F 28% 30.12 in 10.0 mi WNW 6.9 mph - N/A   Clear
7:35 PM 21.2 °F 12.6 °F -7.6 °F 28% 30.12 in 10.0 mi WNW 6.9 mph - N/A   Clear
7:55 PM 21.2 °F 12.6 °F -5.8 °F 30% 30.12 in 10.0 mi WNW 6.9 mph - N/A   Clear
8:15 PM 19.4 °F 9.5 °F -5.8 °F 33% 30.12 in 10.0 mi WNW 8.1 mph - N/A   Clear
8:35 PM 19.4 °F 9.5 °F -5.8 °F 33% 30.11 in 10.0 mi WNW 8.1 mph - N/A   Clear
8:55 PM 19.4 °F 10.4 °F -5.8 °F 33% 30.12 in 10.0 mi WNW 6.9 mph - N/A   Clear
9:15 PM 19.4 °F 7.9 °F -5.8 °F 33% 30.13 in 10.0 mi WNW 10.4 mph - N/A   Clear
9:35 PM 19.4 °F 9.5 °F -5.8 °F 33% 30.13 in 10.0 mi NW 8.1 mph - N/A   Clear
9:55 PM 19.4 °F 9.5 °F -4.0 °F 36% 30.14 in 10.0 mi WNW 8.1 mph - N/A   Clear
10:15 PM 19.4 °F 10.4 °F -4.0 °F 36% 30.14 in 10.0 mi WNW 6.9 mph - N/A   Clear
10:35 PM 19.4 °F 9.5 °F -2.2 °F 39% 30.14 in 10.0 mi WNW 8.1 mph - N/A   Clear
10:55 PM 19.4 °F 10.4 °F -2.2 °F 39% 30.14 in 10.0 mi West 6.9 mph - N/A   Clear
11:15 PM 19.4 °F 11.5 °F -2.2 °F 39% 30.13 in 10.0 mi West 5.8 mph - N/A   Clear
11:55 PM 19.4 °F 8.6 °F -2.2 °F 39% 30.14 in 10.0 mi WNW 9.2 mph - N/A   Clear